Change the Weather History Date:

Friday, February 1, 2013

  Actual Average Record
Temperature  
Mean Temperature 18 °F -  
Max Temperature 21 °F 34 °F 62 °F (1989)
Min Temperature 14 °F 19 °F -9 °F (1971)
Degree Days  
Heating Degree Days 48    
Moisture  
Dew Point 9 °F    
Average Humidity 72    
Maximum Humidity 86    
Minimum Humidity 58    
Precipitation  
Precipitation 0.00 in - - ()
Sea Level Pressure  
Sea Level Pressure 30.15 in    
Wind  
Wind Speed 16 mph (WSW)    
Max Wind Speed 23 mph    
Max Gust Speed 28 mph    
Visibility 9 miles    
Events Snow    
Averages and records for this station are not official NWS values.
T = Trace of Precipitation, MM = Missing Value Source: NWS Daily Summary

Daily Weather History Graph

Daily Weather History Graph

Search for Another Location

Airport or City:

Trip Planner

Search our weather history database for the weather conditions in past years. The results will help you decide how hot, cold, wet, or windy it might be!

Date:

Astronomy

Feb. 01, 2013 Rise Set
Actual Time 7:46 AM EST 5:49 PM EST
Civil Twilight 7:16 AM EST 6:18 PM EST
Nautical Twilight 6:43 AM EST 6:52 PM EST
Astronomical Twilight 6:10 AM EST 7:24 PM EST
Moon No Moon Rise 10:12 AM EST (2/1)
Length of Visible Light 11h 02m
Length of Day
10h 03m
Waning Gibbous, 70% of the Moon is Illuminated
Feb 1
Waning Gibbous
Feb 3
Last Quarter
Feb 10
New
Feb 17
First Quarter
Feb 25
Full

Hourly Weather History & Observations

Time (EST) Temp. Windchill Dew Point Humidity Pressure Visibility Wind Dir Wind Speed Gust Speed Precip Events Conditions
12:14 AM 19.4 °F 5.5 °F 12.2 °F 74% 29.88 in 10.0 mi West 15.0 mph 23.0 mph N/A   Overcast
12:54 AM 17.6 °F 3.2 °F 12.2 °F 79% 29.89 in 10.0 mi West 15.0 mph - N/A   Clear
1:14 AM 17.6 °F 3.2 °F 12.2 °F 79% 29.90 in 10.0 mi West 15.0 mph - N/A   Clear
1:34 AM 17.6 °F 3.2 °F 12.2 °F 79% 29.91 in 10.0 mi West 15.0 mph 21.9 mph N/A   Scattered Clouds
1:54 AM 17.6 °F 3.2 °F 12.2 °F 79% 29.91 in 10.0 mi West 15.0 mph 23.0 mph N/A   Mostly Cloudy
3:14 AM 17.6 °F 2.2 °F 12.2 °F 79% 29.95 in 5.0 mi West 17.3 mph 23.0 mph N/A Snow Light Snow
3:34 AM 17.6 °F 3.2 °F 12.2 °F 79% 29.96 in 10.0 mi West 15.0 mph - N/A   Overcast
4:15 AM 17.6 °F 2.7 °F 14.0 °F 86% 29.98 in 5.0 mi West 16.1 mph 20.7 mph N/A Snow Light Snow
4:35 AM 17.6 °F 1.7 °F 12.2 °F 79% 29.99 in 10.0 mi West 18.4 mph 23.0 mph N/A   Overcast
4:55 AM 17.6 °F 2.7 °F 12.2 °F 79% 30.00 in 7.0 mi West 16.1 mph - N/A Snow Light Snow
5:15 AM 17.6 °F 2.7 °F 12.2 °F 79% 30.01 in 7.0 mi West 16.1 mph 26.5 mph N/A Snow Light Snow
5:35 AM 17.6 °F 1.7 °F 12.2 °F 79% 30.03 in 5.0 mi West 18.4 mph 26.5 mph N/A Snow Light Snow
5:55 AM 15.8 °F -0.6 °F 12.2 °F 86% 30.03 in 7.0 mi WSW 18.4 mph 23.0 mph N/A Snow Light Snow
6:15 AM 15.8 °F 0.3 °F 10.4 °F 79% 30.05 in 10.0 mi West 16.1 mph 21.9 mph N/A   Mostly Cloudy
6:35 AM 15.8 °F 0.3 °F 10.4 °F 79% 30.06 in 10.0 mi West 16.1 mph 20.7 mph N/A   Mostly Cloudy
7:16 AM 15.8 °F 0.3 °F 10.4 °F 79% 30.09 in 10.0 mi West 16.1 mph - N/A   Mostly Cloudy
7:31 AM 15.8 °F 0.3 °F 10.4 °F 79% 30.09 in 10.0 mi WSW 16.1 mph 24.2 mph N/A   Mostly Cloudy
7:51 AM 15.8 °F 0.9 °F 10.4 °F 79% 30.11 in 10.0 mi West 15.0 mph 25.3 mph N/A   Overcast
8:11 AM 15.8 °F -0.6 °F 10.4 °F 79% 30.12 in 2.5 mi West 18.4 mph 23.0 mph N/A Snow Light Snow
8:31 AM 15.8 °F 0.9 °F 10.4 °F 79% 30.13 in 4.0 mi West 15.0 mph - N/A   Haze
8:51 AM 15.8 °F 0.9 °F 10.4 °F 79% 30.14 in 4.0 mi West 15.0 mph 21.9 mph N/A   Haze
9:11 AM 15.8 °F 0.9 °F 10.4 °F 79% 30.15 in 10.0 mi West 15.0 mph - N/A   Overcast
9:31 AM 17.6 °F 1.7 °F 10.4 °F 73% 30.16 in 10.0 mi West 18.4 mph 21.9 mph N/A   Mostly Cloudy
9:51 AM 17.6 °F 2.2 °F 10.4 °F 73% 30.16 in 10.0 mi West 17.3 mph 23.0 mph N/A   Scattered Clouds
10:11 AM 17.6 °F 1.3 °F 10.4 °F 73% 30.17 in 10.0 mi West 19.6 mph 25.3 mph N/A   Scattered Clouds
10:32 AM 17.6 °F 2.2 °F 10.4 °F 73% 30.19 in 10.0 mi West 17.3 mph 23.0 mph N/A   Clear
10:52 AM 17.6 °F 0.1 °F 10.4 °F 73% 30.19 in 10.0 mi West 23.0 mph 27.6 mph N/A   Mostly Cloudy
11:12 AM 19.4 °F 4.5 °F 10.4 °F 68% 30.20 in 10.0 mi West 17.3 mph 25.3 mph N/A   Overcast
11:32 AM 19.4 °F 6.0 °F 10.4 °F 68% 30.20 in 10.0 mi West 13.8 mph - N/A   Overcast
11:52 AM 19.4 °F 4.1 °F 10.4 °F 68% 30.20 in 10.0 mi West 18.4 mph 21.9 mph N/A   Overcast
12:12 PM 19.4 °F 5.0 °F 10.4 °F 68% 30.21 in 10.0 mi WSW 16.1 mph 21.9 mph N/A   Mostly Cloudy
12:32 PM 19.4 °F 4.5 °F 10.4 °F 68% 30.20 in 10.0 mi West 17.3 mph 23.0 mph N/A   Overcast
12:52 PM 21.2 °F 6.4 °F 10.4 °F 63% 30.20 in 10.0 mi WSW 18.4 mph 27.6 mph N/A   Mostly Cloudy
1:12 PM 19.4 °F 3.6 °F 10.4 °F 68% 30.21 in 10.0 mi West 19.6 mph 25.3 mph N/A   Mostly Cloudy
1:32 PM 21.2 °F 7.3 °F 10.4 °F 63% 30.21 in 10.0 mi West 16.1 mph 24.2 mph N/A   Overcast
1:52 PM 19.4 °F 5.0 °F 8.6 °F 63% 30.21 in 10.0 mi WSW 16.1 mph - N/A   Overcast
2:13 PM 19.4 °F 4.5 °F 8.6 °F 63% 30.21 in 10.0 mi West 17.3 mph 26.5 mph N/A   Overcast
2:33 PM 19.4 °F 4.5 °F 8.6 °F 63% 30.22 in 10.0 mi West 17.3 mph 23.0 mph N/A   Overcast
2:53 PM 19.4 °F 4.1 °F 8.6 °F 63% 30.22 in 10.0 mi WSW 18.4 mph - N/A   Overcast
3:13 PM 19.4 °F 5.0 °F 8.6 °F 63% 30.22 in 10.0 mi West 16.1 mph 20.7 mph N/A   Overcast
3:33 PM 19.4 °F 4.5 °F 8.6 °F 63% 30.22 in 10.0 mi West 17.3 mph - N/A   Overcast
3:53 PM 19.4 °F 5.5 °F 8.6 °F 63% 30.23 in 10.0 mi West 15.0 mph - N/A   Overcast
4:13 PM 19.4 °F 4.5 °F 6.8 °F 58% 30.23 in 10.0 mi WSW 17.3 mph 20.7 mph N/A   Overcast
4:33 PM 17.6 °F 3.7 °F 8.6 °F 68% 30.23 in 10.0 mi West 13.8 mph 18.4 mph N/A   Overcast
4:54 PM 17.6 °F 3.7 °F 6.8 °F 63% 30.23 in 10.0 mi WSW 13.8 mph 23.0 mph N/A   Overcast
5:14 PM 17.6 °F 2.7 °F 8.6 °F 68% 30.23 in 10.0 mi WSW 16.1 mph 20.7 mph N/A   Overcast
5:34 PM 17.6 °F 3.2 °F 6.8 °F 63% 30.24 in 10.0 mi WSW 15.0 mph - N/A   Overcast
5:54 PM 15.8 °F -1.5 °F 6.8 °F 68% 30.24 in 10.0 mi WSW 20.7 mph - N/A   Overcast
6:14 PM 15.8 °F -1.1 °F 6.8 °F 68% 30.25 in 10.0 mi WSW 19.6 mph - N/A   Overcast
6:34 PM 15.8 °F 0.9 °F 6.8 °F 68% 30.25 in 10.0 mi West 15.0 mph 20.7 mph N/A   Overcast
7:14 PM 14.0 °F 0.5 °F 6.8 °F 73% 30.26 in 10.0 mi West 11.5 mph 16.1 mph N/A   Overcast
7:34 PM 15.8 °F 0.3 °F 6.8 °F 68% 30.26 in 10.0 mi WSW 16.1 mph - N/A   Overcast
7:54 PM 14.0 °F -3.0 °F 6.8 °F 73% 30.26 in 10.0 mi WSW 18.4 mph - N/A   Overcast
8:15 PM 14.0 °F -2.5 °F 6.8 °F 73% 30.26 in 10.0 mi WSW 17.3 mph - N/A   Overcast
8:35 PM 14.0 °F -3.0 °F 5.0 °F 67% 30.27 in 10.0 mi WSW 18.4 mph - N/A   Overcast
9:00 PM 14.0 °F 0.5 °F 6.8 °F 73% 30.26 in 10.0 mi WSW 11.5 mph 19.6 mph N/A   Overcast
9:15 PM 14.0 °F -0.2 °F 6.8 °F 73% 30.26 in 10.0 mi WSW 12.7 mph - N/A   Overcast
9:35 PM 14.0 °F 1.2 °F 6.8 °F 73% 30.25 in 10.0 mi SW 10.4 mph - N/A   Overcast
9:55 PM 14.0 °F 2.0 °F 6.8 °F 73% 30.25 in 10.0 mi WSW 9.2 mph - N/A   Overcast
10:15 PM 14.0 °F -0.2 °F 6.8 °F 73% 30.25 in 10.0 mi SW 12.7 mph - N/A   Mostly Cloudy
10:35 PM 14.0 °F 0.5 °F 6.8 °F 73% 30.25 in 10.0 mi SW 11.5 mph - N/A   Overcast
10:56 PM 15.8 °F 3.4 °F 8.6 °F 73% 30.24 in 10.0 mi SW 10.4 mph - N/A   Overcast
11:16 PM 15.8 °F 4.2 °F 8.6 °F 73% 30.23 in 10.0 mi SSW 9.2 mph - N/A   Overcast
11:31 PM 15.8 °F 5.1 °F 8.6 °F 73% 30.23 in 10.0 mi SSW 8.1 mph - N/A   Overcast
11:51 PM 15.8 °F 2.7 °F 8.6 °F 73% 30.22 in 10.0 mi SW 11.5 mph 18.4 mph N/A   Overcast